Regional Weather Roundup
Issued by NWS

Home | Current Version | Previous Version | Text Only | Print | Product List | Glossary On
Versions: 1 2 3 4 5 6 7 8 9 10 11 12 13 14 15 16 17 18 19 20 21 22 23 24 25 26 27 28 29 30 31 32 33 34 35 36 37 38 39 40 41 42 43 44 45 46 47 48 49 50
000
ASHW40 PHFO 271210
RWRHI

WEATHER ROUNDUP FOR HAWAII
NATIONAL WEATHER SERVICE HONOLULU HI
200 AM HST SAT DEC 27 2014

THIS IS AN AUTOMATED REPORT THAT HAS NOT BEEN QUALITY CONTROLLED.

NOTE..."FAIR" INDICATES FEW OR NO CLOUDS BELOW 12,000 FEET WITH NO
SIGNIFICANT WEATHER AND/OR OBSTRUCTIONS TO VISIBILITY.

* - THESE SITES REPORT LIMITED FIELDS

HIZ001>004-271300-
KAUAI-NIIHAU-

CITY           SKY/WX    TMP DP  RH WIND       PRES   REMARKS
LIHUE APT      CLEAR     61  55  81 W7        29.83F
PORT ALLEN*      N/A     70 N/A N/A NW8G14      N/A
POIPU*           N/A     59 N/A N/A NW2         N/A
PRINCEVILLE*     N/A     70 N/A N/A MISG        N/A
KOKOLE POINT*  NOT AVBL
MOLOAA DAIRY*  NOT AVBL
WAIMEA HTS*    NOT AVBL
PUU OPAE*      NOT AVBL
PUU LUA*       NOT AVBL
MAKAHA RIDGE*  NOT AVBL
$$

HIZ005>011-271300-
OAHU-

CITY           SKY/WX    TMP DP  RH WIND       PRES   REMARKS
HONOLULU       MOCLDY    67  60  78 NE5       29.84R
KALAELOA       CLEAR     61  58  90 CALM      29.85S
KANEOHE MCB    PTCLDY    70  60  70 NW9       29.84S
WHEELER FIELD  FAIR      67  58  74 NW10      29.84S
BELLOWS*       NOT AVBL
KAHUKU*        NOT AVBL
WHEELER*       NOT AVBL
WAIANAE HARBOR NOT AVBL
DILLINGHAM*      N/A     72  59  64 W3G12       N/A
KAHUKU TRN*      N/A     68  55  64 W6G20       N/A
KAWAILOA*        N/A     64  57  77 NW3G12      N/A
KII*             N/A     72  57  60 NW12G22     N/A
MAKUA RANGE*     N/A     72  59  64 NE3G13      N/A
OAHU FOREST NW NOT AVBL
SCHOFIELD BRK*   N/A     66  57  72 MISG        N/A
SCHOFIELD S*   NOT AVBL
WAIANAE VLY*   NOT AVBL
KUAOKALA*      NOT AVBL
HONOULIUULI*   NOT AVBL
MOKUOLOE IS*     N/A    N/A N/A N/A MISG        N/A
PALEHUA*       NOT AVBL
WAIAWA PHB*    NOT AVBL
$$

HIZ012>013-271300-
MOLOKAI-

CITY           SKY/WX    TMP DP  RH WIND       PRES   REMARKS
MOLOKAI AIRPT  PTCLDY    68  61  78 NW9       29.85S
KALAUPAPA      NOT AVBL
MAKAPULAPAI*   NOT AVBL
MOLOKAI 1*     NOT AVBL
PUU ALII*      NOT AVBL
$$

HIZ016-271300-
KAHOOLAWE-

CITY           SKY/WX    TMP DP  RH WIND       PRES   REMARKS
KAHOOLAWE*     NOT AVBL
HAKIOAWA*      NOT AVBL
HONOKANAIA*      N/A     72  64  76 VRB3G12   29.84S
KANELOA*         N/A     68  64  88 VRB8      29.06S
KEALIALALO*    NOT AVBL
LUA MAKIKA*    NOT AVBL
$$

HIZ014>015-271300-
LANAI-

CITY           SKY/WX    TMP DP  RH WIND       PRES   REMARKS
LANAI CITY     FAIR      64  64 100 NW6       29.88S
LANAI 1*       NOT AVBL
$$

HIZ017>028-271300-
MAUI-

CITY           SKY/WX    TMP DP  RH WIND       PRES   REMARKS
KAHULUI        CLEAR     65  61  87 CALM      29.83F
KAPALUA-W MAUI NOT AVBL
HANA AIRPORT   CLEAR     66  63  88 CALM      29.85S
HANA*          NOT AVBL
HALEAKALA SUMM   N/A     39  -2  17 NW20G33     N/A  WCI  30
MAALAEA BAY*   NOT AVBL
HALEAKALA*     NOT AVBL
KAUPO GAP*     NOT AVBL
KULA 1*          N/A     48  14  25 NE5G12      N/A
$$

HIZ023>026-271300-
BIG ISLAND OF HAWAII COAST AND LOWER SLOPES-

CITY           SKY/WX    TMP DP  RH WIND       PRES   REMARKS
KAILUA KONA    MOCLDY    71  62  73 E6        29.81F
HILO           PTCLDY    68  59  73 SW5       29.81F
HONOKAA*       NOT AVBL
KAWAIHAE MWT*  NOT AVBL
KAWAIHAE*        N/A     72 N/A N/A NE6         N/A
SOUTH POINT*   NOT AVBL
UPOLU AIRPORT* NOT AVBL
KAMUELA*       CLOUDY    59  55  88 S5        29.92S
HAKALAU*         N/A    N/A N/A N/A SW3         N/A
KALOKO-HONOKO* NOT AVBL
PALI 2*          N/A     57  55  94 N3          N/A
KEALAKOMO*       N/A     75  68  78 W3          N/A
KAUPULEHU*     NOT AVBL
KAPAPALA*        N/A     59  57  94 CALM        N/A
LOWER KAHUKU*  NOT AVBL
PUHE CS*       NOT AVBL
PUHO CS*       NOT AVBL
PTA KEAMUKU*     N/A     55  52  88 CALM        N/A
WAIKOLOA*      NOT AVBL
$$

HIZ027>028-271300-
BIG ISLAND OF HAWAII INTERIOR AND SUMMMITS-

CITY           SKY/WX    TMP DP  RH WIND       PRES   REMARKS
BRADSHAW FIELD CLOUDY    43   9  24 N2        30.11F
MK VISITOR CEN NOT AVBL
MAUNA KEA*       N/A     28 -20  11 NW75        N/A  WCI   6
MAUNA LOA*       N/A     39 -29   4 MISG        N/A
MAUNA LOA 1*   NOT AVBL
PTA KIPUKA*      N/A     39  36  87 SE2         N/A
PTA RANGE 17*    N/A     43  34  70 W1G10       N/A
PTA WEST*        N/A     48  46  93 SE12        N/A
NENE CABIN*    NOT AVBL
AHUMOA*        NOT AVBL
PTA PORTABLE*  NOT AVBL
PUU MALI*      NOT AVBL
$$

HIC003-271300-
NORTHWEST ISLANDS-

CITY           SKY/WX    TMP DP  RH WIND       PRES   REMARKS
MIDWAY ISLAND  CLEAR     63  63 100 CALM      30.03F
MIDWAY NOS*    NOT AVBL
FRENCH FRIGATE NOT AVBL
$$

PHZ110>124-180-271300-
BUOY REPORTS

STATION/POSITION TIME  TEMP    WIND        PRES    WAVE   SWELL
                       AIR SEA DIR/SP/G            HT/PER HT/DIR
                 (UTC) (F)     (DEG/KT/KT) (MB)    (FT/S) (FT/D)
BUOY 51001       NOT AVBL
BUOY 51101       1200   70 76  320/ 19/ 23 1011.2F  10/ 8   7/ 50
BUOY 51100       NOT AVBL
BUOY 51003       1100   75 78  360/ 16/ 17 1011.8F   7/ 9   5
BUOY 51004       1150   76 78  270/  2/  4 1009.3F   6/ 9   7/ 80
BARBERS PT BUOY  NOT AVBL
WAIMEA BAY BUOY  1200      77                N/A     8/ 8   3/ 10
KAILUA BAY BUOY  1200      76                N/A     5/ 8   2/ 30
LANAI BUOY       1200      78                N/A     3/ 5   2/180
BARBERS PT 2     1100      77                N/A     4/ 6   2/240
PAUWELA MAUI     1100      77                N/A     7/ 9
HILO             1200      78                N/A     6/ 9   2/ 40
KANEOHE BAY BUOY 1200      76                N/A     6/ 9   2/ 50
HANALEI KAUAI    NOT AVBL
KAHULUI HARBOR   1200   67 77  160/  2/  3 1009.9F
HONOLULU HARBOR  1200   71     350/  4/  6 1010.8F
KILO NALU        NOT AVBL
HILO HARBOR      1200   68     190/  4/  5 1009.1F
MOKUOLOE         1200      76              1010.7F
NAWILIWILI       1200      77                N/A
WHOTS BUOY       NOT AVBL
BUOY 51028       NOT AVBL
$$

......................KEY........................................
  SKY/WX - SKY CONDITIONS/PRESENT WEATHER
  TMP    - TEMPERATURE IN FAHRENHEIT
  DWPT   - DEWPOINT IN FAHRENHEIT
  RH     - RELATIVE HUMIDITY IN PERCENT
  WIND   - DIRECTION AND SPEED /MPH FOR ISLANDS...KTS FOR BUOYS/
  PRES   - MEAN SEA LEVEL PRESSURE IN INCHES OF HG
  VSB    - VISIBILITY IN MILES
  HX     - HEAT INDEX
  WCI    - WIND CHILL INDEX
  VRB    - VARIABLE WIND DIRECTION
  N/A    - NOT AVAILABLE


USA.gov is the U.S. government's official web portal to all federal, state and local government web resources and services.